| time (UTC) | temp F | wind direction | speed MPH | gust MPH | rain 1hr in | rain 24hr in | rain mn in | humidity % | barometer mb |
| 20260905234552 | 80 | 200 | 0.0 | 0.0 | 0.00 | 0.00 | 0.00 | 21 | 1004.9 |
| 20260905233047 | 81 | 233 | 0.0 | 12.0 | 0.00 | 0.00 | 0.00 | 21 | 1005.0 |
| 20260905231542 | 81 | 200 | 0.0 | 0.0 | 0.00 | 0.00 | 0.00 | 21 | 1005.0 |
| 20260905230039 | 81 | 223 | 0.0 | 0.0 | 0.00 | 0.00 | 0.00 | 19 | 1005.0 |
| 20260905224534 | 81 | 238 | 0.0 | 0.0 | 0.00 | 0.00 | 0.00 | 20 | 1005.2 |
| 20260905223042 | 80 | 213 | 0.0 | 0.0 | 0.00 | 0.00 | 0.00 | 20 | 1005.3 |
| 20260905221524 | 80 | 169 | 0.0 | 4.0 | 0.00 | 0.00 | 0.00 | 24 | 1005.6 |
| 20260905220020 | 80 | 161 | 0.0 | 0.0 | 0.00 | 0.00 | 0.00 | 20 | 1005.9 |
| 20260905214515 | 80 | 187 | 0.0 | 8.0 | 0.00 | 0.00 | 0.00 | 22 | 1006.0 |
| 20260905213010 | 80 | 360 | 2.0 | 18.0 | 0.00 | 0.00 | 0.00 | 23 | 1005.9 |
| 20260905211506 | 80 | 162 | 0.0 | 12.0 | 0.00 | 0.00 | 0.00 | 23 | 1006.2 |
| 20260905210001 | 79 | 360 | 0.0 | 0.0 | 0.00 | 0.00 | 0.00 | 25 | 1006.4 |
| 20260905204600 | 79 | 164 | 0.0 | 12.0 | 0.00 | 0.00 | 0.00 | 24 | 1006.3 |
| 20260905203052 | 79 | 169 | 0.0 | 0.0 | 0.00 | 0.00 | 0.00 | 23 | 1006.3 |
| 20260905201548 | 78 | 360 | 0.0 | 0.0 | 0.00 | 0.00 | 0.00 | 23 | 1006.6 |
| 20260905200109 | 78 | 163 | 0.0 | 0.0 | 0.00 | 0.00 | 0.00 | 24 | 1006.7 |
| 20260905194539 | 78 | 155 | 0.0 | 0.0 | 0.00 | 0.00 | 0.00 | 26 | 1006.9 |
| 20260905193039 | 77 | 153 | 0.0 | 0.0 | 0.00 | 0.00 | 0.00 | 24 | 1007.0 |
| 20260905191533 | 77 | 161 | 0.0 | 0.0 | 0.00 | 0.00 | 0.00 | 25 | 1007.3 |
| 20260905190026 | 77 | 360 | 0.0 | 0.0 | 0.00 | 0.00 | 0.00 | 27 | 1007.4 |
| 20260905184532 | 76 | 175 | 0.0 | 0.0 | 0.00 | 0.00 | 0.00 | 28 | 1007.7 |
| 20260905183019 | 76 | 185 | 0.0 | 0.0 | 0.00 | 0.00 | 0.00 | 26 | 1007.9 |
| 20260905181512 | 75 | 165 | 0.0 | 0.0 | 0.00 | 0.00 | 0.00 | 24 | 1008.1 |
| 20260905180010 | 76 | 360 | 0.0 | 0.0 | 0.00 | 0.00 | 0.00 | 28 | 1008.2 |
| 20260905174504 | 75 | 186 | 0.0 | 0.0 | 0.00 | 0.00 | 0.00 | 25 | 1008.3 |
| 20260905173102 | 74 | 150 | 0.0 | 0.0 | 0.00 | 0.00 | 0.00 | 28 | 1008.4 |
| 20260905171555 | 74 | 173 | 0.0 | 0.0 | 0.00 | 0.00 | 0.00 | 28 | 1008.5 |
| 20260905170050 | 73 | 183 | 0.0 | 0.0 | 0.00 | 0.00 | 0.00 | 29 | 1008.6 |
| 20260905164547 | 73 | 168 | 0.0 | 0.0 | 0.00 | 0.00 | 0.00 | 29 | 1008.6 |
| 20260905163041 | 72 | 173 | 0.0 | 0.0 | 0.00 | 0.00 | 0.00 | 32 | 1008.7 |
| 20260905161537 | 71 | 360 | 0.0 | 0.0 | 0.00 | 0.00 | 0.00 | 35 | 1008.7 |
| 20260905160032 | 69 | 184 | 0.0 | 0.0 | 0.00 | 0.00 | 0.00 | 43 | 1008.8 |
| 20260905154529 | 66 | 182 | 0.0 | 0.0 | 0.00 | 0.00 | 0.00 | 43 | 1009.1 |
| 20260905153029 | 62 | 182 | 0.0 | 0.0 | 0.00 | 0.00 | 0.00 | 32 | 1009.2 |
| 20260905151522 | 59 | 182 | 0.0 | 0.0 | 0.00 | 0.00 | 0.00 | 32 | 1009.5 |
| 20260905150024 | 56 | 182 | 0.0 | 0.0 | 0.00 | 0.00 | 0.00 | 23 | 1009.7 |
| 20260905144518 | 54 | 182 | 0.0 | 0.0 | 0.00 | 0.00 | 0.00 | 20 | 1009.8 |
| 20260905143018 | 53 | 182 | 0.0 | 0.0 | 0.00 | 0.00 | 0.00 | 17 | 1009.7 |
| 20260905141512 | 52 | 182 | 0.0 | 0.0 | 0.00 | 0.00 | 0.00 | 14 | 1009.4 |
| 20260905140004 | 50 | 182 | 0.0 | 0.0 | 0.00 | 0.00 | 0.00 | 6 | 1009.4 |
| 20260905134559 | 48 | 182 | 0.0 | 0.0 | 0.00 | 0.00 | 0.00 | 9 | 1009.2 |
| 20260905133055 | 48 | 182 | 0.0 | 0.0 | 0.00 | 0.00 | 0.00 | 7 | 1009.0 |
| 20260905131601 | 48 | 182 | 0.0 | 0.0 | 0.00 | 0.00 | 0.00 | 8 | 1008.7 |
| 20260905130045 | 48 | 182 | 0.0 | 0.0 | 0.00 | 0.00 | 0.00 | 13 | 1008.4 |
| 20260905124542 | 49 | 182 | 0.0 | 0.0 | 0.00 | 0.00 | 0.00 | 10 | 1008.2 |
| 20260905123100 | 49 | 182 | 0.0 | 0.0 | 0.00 | 0.00 | 0.00 | 11 | 1008.0 |
| 20260905121532 | 49 | 182 | 0.0 | 0.0 | 0.00 | 0.00 | 0.00 | 9 | 1007.7 |
| 20260905120030 | 49 | 182 | 0.0 | 0.0 | 0.00 | 0.00 | 0.00 | 12 | 1007.6 |
| 20260905114524 | 50 | 182 | 0.0 | 0.0 | 0.00 | 0.00 | 0.00 | 20 | 1007.5 |
| 20260905113027 | 51 | 182 | 0.0 | 0.0 | 0.00 | 0.00 | 0.00 | 31 | 1007.3 |
| 20260905111523 | 52 | 182 | 0.0 | 0.0 | 0.00 | 0.00 | 0.00 | 32 | 1007.3 |
| 20260905110019 | 52 | 182 | 0.0 | 0.0 | 0.00 | 0.00 | 0.00 | 26 | 1007.2 |
| 20260905104517 | 51 | 182 | 0.0 | 0.0 | 0.00 | 0.00 | 0.00 | 22 | 1007.1 |
| 20260905103016 | 51 | 182 | 0.0 | 0.0 | 0.00 | 0.00 | 0.00 | 32 | 1007.0 |
| 20260905101512 | 52 | 182 | 0.0 | 0.0 | 0.00 | 0.00 | 0.00 | 46 | 1006.7 |
| 20260905100009 | 52 | 182 | 0.0 | 0.0 | 0.00 | 0.00 | 0.00 | 49 | 1006.5 |
| 20260905094507 | 53 | 182 | 0.0 | 0.0 | 0.00 | 0.00 | 0.00 | 51 | 1006.5 |
| 20260905093004 | 53 | 182 | 0.0 | 0.0 | 0.00 | 0.00 | 0.00 | 52 | 1006.4 |
| 20260905091503 | 54 | 182 | 0.0 | 0.0 | 0.00 | 0.00 | 0.00 | 52 | 1006.3 |
| 20260905090100 | 53 | 182 | 0.0 | 0.0 | 0.00 | 0.00 | 0.00 | 51 | 1006.1 |
| 20260905084609 | 53 | 182 | 0.0 | 0.0 | 0.00 | 0.00 | 0.00 | 54 | 1005.9 |
| 20260905083054 | 55 | 360 | 0.0 | 0.0 | 0.00 | 0.00 | 0.00 | 56 | 1005.6 |
| 20260905081552 | 59 | 360 | 0.0 | 0.0 | 0.00 | 0.00 | 0.00 | 51 | 1005.5 |
| 20260905080124 | 60 | 360 | 0.0 | 0.0 | 0.00 | 0.00 | 0.00 | 48 | 1005.4 |
| 20260905074550 | 59 | 360 | 0.0 | 0.0 | 0.00 | 0.00 | 0.00 | 50 | 1005.4 |
| 20260905073048 | 56 | 360 | 0.0 | 0.0 | 0.00 | 0.00 | 0.00 | 55 | 1005.3 |
| 20260905071550 | 56 | 360 | 0.0 | 0.0 | 0.00 | 0.00 | 0.00 | 55 | 1005.1 |
| 20260905070051 | 56 | 360 | 0.0 | 0.0 | 0.00 | 0.00 | 0.00 | 56 | 1005.0 |
| 20260905064551 | 56 | 360 | 0.0 | 0.0 | 0.00 | 0.00 | 0.00 | 55 | 1004.9 |
| 20260905063042 | 57 | 360 | 0.0 | 0.0 | 0.00 | 0.00 | 0.00 | 54 | 1004.7 |
| 20260905061538 | 58 | 360 | 0.0 | 0.0 | 0.00 | 0.00 | 0.00 | 53 | 1004.4 |
| 20260905060043 | 60 | 360 | 0.0 | 0.0 | 0.00 | 0.00 | 0.00 | 50 | 1004.3 |
| 20260905054536 | 61 | 360 | 0.0 | 0.0 | 0.00 | 0.00 | 0.00 | 48 | 1004.2 |
| 20260905053029 | 62 | 360 | 0.0 | 0.0 | 0.00 | 0.00 | 0.00 | 47 | 1004.1 |
| 20260905051540 | 63 | 360 | 0.0 | 0.0 | 0.00 | 0.00 | 0.00 | 46 | 1004.1 |
| 20260905050028 | 64 | 360 | 0.0 | 0.0 | 0.00 | 0.00 | 0.00 | 42 | 1004.1 |
| 20260905044536 | 64 | 360 | 0.0 | 0.0 | 0.00 | 0.00 | 0.00 | 44 | 1004.0 |
| 20260905043028 | 65 | 360 | 0.0 | 0.0 | 0.00 | 0.00 | 0.00 | 38 | 1004.1 |
| 20260905041527 | 66 | 360 | 0.0 | 0.0 | 0.00 | 0.00 | 0.00 | 37 | 1004.1 |
| 20260905040034 | 66 | 182 | 0.0 | 0.0 | 0.00 | 0.00 | 0.00 | 36 | 1003.9 |
| 20260905034525 | 66 | 182 | 0.0 | 0.0 | 0.00 | 0.00 | 0.00 | 37 | 1003.7 |
| 20260905033025 | 66 | 182 | 0.0 | 0.0 | 0.00 | 0.00 | 0.00 | 37 | 1003.7 |
| 20260905031534 | 66 | 182 | 0.0 | 0.0 | 0.00 | 0.00 | 0.00 | 37 | 1003.6 |
| 20260905030024 | 67 | 182 | 0.0 | 0.0 | 0.00 | 0.00 | 0.00 | 36 | 1003.3 |
| 20260905024524 | 68 | 219 | 0.0 | 0.0 | 0.00 | 0.00 | 0.00 | 33 | 1002.9 |
| 20260905023023 | 66 | 221 | 0.0 | 0.0 | 0.00 | 0.00 | 0.00 | 37 | 1002.6 |
| 20260905021533 | 67 | 222 | 0.0 | 0.0 | 0.00 | 0.00 | 0.00 | 36 | 1002.3 |
| 20260905020027 | 69 | 225 | 0.0 | 0.0 | 0.00 | 0.00 | 0.00 | 35 | 1002.1 |
| 20260905014521 | 72 | 225 | 0.0 | 0.0 | 0.00 | 0.00 | 0.00 | 34 | 1002.0 |
| 20260905013021 | 75 | 230 | 0.0 | 0.0 | 0.00 | 0.00 | 0.00 | 30 | 1001.9 |
| 20260905011520 | 77 | 230 | 0.0 | 0.0 | 0.00 | 0.00 | 0.00 | 23 | 1001.9 |
| 20260905010022 | 78 | 248 | 0.0 | 0.0 | 0.00 | 0.00 | 0.00 | 22 | 1001.8 |
| 20260905004522 | 79 | 221 | 0.0 | 0.0 | 0.00 | 0.00 | 0.00 | 22 | 1001.9 |
| 20260905003036 | 79 | 223 | 0.0 | 0.0 | 0.00 | 0.00 | 0.00 | 24 | 1001.8 |
| 20260905001517 | 79 | 208 | 0.0 | 0.0 | 0.00 | 0.00 | 0.00 | 23 | 1001.9 |
| 20260905000015 | 79 | 178 | 0.0 | 0.0 | 0.00 | 0.00 | 0.00 | 23 | 1001.9 |